Location: Caixon
(43.4106°N, 0.0273°E)
Time: 14:33:29
(UTC+00:00)

Cosmos 1959 Rocket - Pass Details

Date: 16 October 2021
Orbit: 947 x 997 km, 83.0° (Epoch: 29 November)

Event Time Altitude Azimuth Distance (km) Brightness Sun altitude
Rises 04:51:09 0° 352° (N) 3,630 7.4 -16.0°
Reaches altitude 10° 04:53:39 10° 353° (N) 2,679 6.8 -15.5°
Maximum altitude 04:59:47 88° 83° (E) 955 4.5 -14.4°
Drops below altitude 10° 05:05:53 10° 173° (S) 2,668 6.9 -13.3°
Sets 05:08:22 0° 174° (S) 3,614 7.6 -12.9°
